| time (UTC) | temp F | wind direction | speed MPH | gust MPH | rain 1hr in | rain 24hr in | rain mn in | humidity % | barometer mb |
| 20260831013005 | 94 | 134 | 2.0 | 4.0 | 0.00 | 0.00 | 0.00 | 34 | 1003.9 |
| 20260831011504 | 95 | 123 | 1.0 | 7.0 | 0.00 | 0.00 | 0.00 | 34 | 1003.8 |
| 20260831010004 | 96 | 139 | 3.0 | 8.0 | 0.00 | 0.00 | 0.00 | 33 | 1003.7 |
| 20260831004503 | 97 | 132 | 2.0 | 5.0 | 0.00 | 0.00 | 0.00 | 33 | 1003.7 |
| 20260831003002 | 99 | 129 | 2.0 | 6.0 | 0.00 | 0.00 | 0.00 | 31 | 1003.8 |
| 20260831001601 | 100 | 147 | 2.0 | 5.0 | 0.00 | 0.00 | 0.00 | 30 | 1003.9 |
| 20260831000100 | 100 | 135 | 2.0 | 9.0 | 0.00 | 0.00 | 0.00 | 31 | 1003.8 |
| 20260830234611 | 99 | 141 | 3.0 | 7.0 | 0.00 | 0.00 | 0.00 | 31 | 1003.8 |
| 20260830233059 | 99 | 138 | 2.0 | 6.0 | 0.00 | 0.00 | 0.00 | 30 | 1003.8 |
| 20260830231556 | 101 | 135 | 2.0 | 6.0 | 0.00 | 0.00 | 0.00 | 31 | 1004.1 |
| 20260830230053 | 100 | 129 | 2.0 | 6.0 | 0.00 | 0.00 | 0.00 | 31 | 1004.3 |
| 20260830224603 | 100 | 131 | 3.0 | 8.0 | 0.00 | 0.00 | 0.00 | 31 | 1004.5 |
| 20260830223053 | 100 | 139 | 3.0 | 8.0 | 0.00 | 0.00 | 0.00 | 32 | 1004.9 |
| 20260830221548 | 101 | 127 | 2.0 | 9.0 | 0.00 | 0.00 | 0.00 | 30 | 1005.2 |
| 20260830220047 | 101 | 139 | 2.0 | 7.0 | 0.00 | 0.00 | 0.00 | 31 | 1005.3 |
| 20260830214542 | 101 | 126 | 2.0 | 8.0 | 0.00 | 0.00 | 0.00 | 30 | 1005.7 |
| 20260830213046 | 99 | 133 | 3.0 | 6.0 | 0.00 | 0.00 | 0.00 | 32 | 1005.9 |
| 20260830211551 | 99 | 140 | 1.0 | 5.0 | 0.00 | 0.00 | 0.00 | 31 | 1006.1 |
| 20260830210049 | 99 | 133 | 3.0 | 8.0 | 0.00 | 0.00 | 0.00 | 30 | 1006.4 |
| 20260830204529 | 98 | 154 | 2.0 | 4.0 | 0.00 | 0.00 | 0.00 | 30 | 1006.7 |
| 20260830203041 | 99 | 125 | 3.0 | 7.0 | 0.00 | 0.00 | 0.00 | 30 | 1007.0 |
| 20260830201528 | 99 | 120 | 2.0 | 6.0 | 0.00 | 0.00 | 0.00 | 30 | 1007.1 |
| 20260830200025 | 98 | 138 | 3.0 | 8.0 | 0.00 | 0.00 | 0.00 | 33 | 1007.4 |
| 20260830194525 | 98 | 144 | 0.0 | 7.0 | 0.00 | 0.00 | 0.00 | 34 | 1007.6 |
| 20260830193024 | 97 | 105 | 1.0 | 9.0 | 0.00 | 0.00 | 0.00 | 34 | 1007.9 |
| 20260830191527 | 96 | 179 | 0.0 | 5.0 | 0.00 | 0.00 | 0.00 | 34 | 1008.2 |
| 20260830190020 | 96 | 111 | 4.0 | 9.0 | 0.00 | 0.00 | 0.00 | 35 | 1008.4 |
| 20260830184519 | 97 | 103 | 3.0 | 8.0 | 0.00 | 0.00 | 0.00 | 33 | 1008.5 |
| 20260830183016 | 96 | 99 | 1.0 | 6.0 | 0.00 | 0.00 | 0.00 | 35 | 1008.7 |
| 20260830181514 | 95 | 105 | 4.0 | 7.0 | 0.00 | 0.00 | 0.00 | 38 | 1008.9 |
| 20260830180017 | 93 | 98 | 3.0 | 9.0 | 0.00 | 0.00 | 0.00 | 40 | 1009.2 |
| 20260830174512 | 92 | 118 | 1.0 | 7.0 | 0.00 | 0.00 | 0.00 | 42 | 1009.2 |
| 20260830173007 | 90 | 115 | 1.0 | 7.0 | 0.00 | 0.00 | 0.00 | 45 | 1009.4 |
| 20260830171506 | 91 | 110 | 2.0 | 6.0 | 0.00 | 0.00 | 0.00 | 43 | 1009.3 |
| 20260830170010 | 90 | 120 | 1.0 | 10.0 | 0.00 | 0.00 | 0.00 | 44 | 1009.4 |
| 20260830164602 | 87 | 100 | 3.0 | 8.0 | 0.00 | 0.00 | 0.00 | 48 | 1009.3 |
| 20260830163100 | 87 | 108 | 2.0 | 7.0 | 0.00 | 0.00 | 0.00 | 47 | 1009.4 |
| 20260830161616 | 88 | 101 | 4.0 | 7.0 | 0.00 | 0.00 | 0.00 | 46 | 1009.5 |
| 20260830160055 | 87 | 105 | 2.0 | 7.0 | 0.00 | 0.00 | 0.00 | 47 | 1009.6 |
| 20260830154552 | 85 | 90 | 1.0 | 8.0 | 0.00 | 0.00 | 0.00 | 50 | 1009.7 |
| 20260830153058 | 86 | 104 | 3.0 | 7.0 | 0.00 | 0.00 | 0.00 | 50 | 1009.6 |
| 20260830151553 | 85 | 108 | 2.0 | 6.0 | 0.00 | 0.00 | 0.00 | 52 | 1009.4 |
| 20260830150048 | 82 | 101 | 0.0 | 0.0 | 0.00 | 0.00 | 0.00 | 59 | 1009.6 |
| 20260830144546 | 81 | 103 | 0.0 | 0.0 | 0.00 | 0.00 | 0.00 | 58 | 1009.5 |
| 20260830143100 | 81 | 100 | 0.0 | 0.0 | 0.00 | 0.00 | 0.00 | 60 | 1009.6 |
| 20260830141546 | 80 | 100 | 0.0 | 0.0 | 0.00 | 0.00 | 0.00 | 61 | 1009.6 |
| 20260830140046 | 80 | 100 | 0.0 | 0.0 | 0.00 | 0.00 | 0.00 | 57 | 1009.7 |
| 20260830134548 | 80 | 100 | 0.0 | 0.0 | 0.00 | 0.00 | 0.00 | 59 | 1009.8 |
| 20260830133042 | 80 | 100 | 0.0 | 0.0 | 0.00 | 0.00 | 0.00 | 57 | 1009.7 |
| 20260830131542 | 80 | 100 | 0.0 | 3.0 | 0.00 | 0.00 | 0.00 | 56 | 1009.6 |
| 20260830130052 | 81 | 97 | 2.0 | 5.0 | 0.00 | 0.00 | 0.00 | 55 | 1009.4 |
| 20260830124537 | 81 | 106 | 2.0 | 7.0 | 0.00 | 0.00 | 0.00 | 55 | 1009.3 |
| 20260830123038 | 81 | 115 | 3.0 | 7.0 | 0.00 | 0.00 | 0.00 | 55 | 1009.2 |
| 20260830121534 | 81 | 102 | 2.0 | 9.0 | 0.00 | 0.00 | 0.00 | 54 | 1009.1 |
| 20260830120031 | 82 | 120 | 5.0 | 14.0 | 0.00 | 0.00 | 0.00 | 53 | 1008.8 |
| 20260830114602 | 82 | 103 | 6.0 | 17.0 | 0.00 | 0.00 | 0.00 | 53 | 1008.2 |
| 20260830113030 | 82 | 109 | 7.0 | 11.0 | 0.00 | 0.00 | 0.00 | 51 | 1008.4 |
| 20260830111529 | 83 | 103 | 1.0 | 6.0 | 0.00 | 0.00 | 0.00 | 49 | 1008.5 |
| 20260830110028 | 83 | 109 | 5.0 | 15.0 | 0.00 | 0.00 | 0.00 | 48 | 1008.7 |
| 20260830104528 | 83 | 101 | 4.0 | 10.0 | 0.00 | 0.00 | 0.00 | 48 | 1008.5 |
| 20260830103027 | 81 | 109 | 0.0 | 0.0 | 0.00 | 0.00 | 0.00 | 51 | 1008.6 |
| 20260830101523 | 81 | 108 | 0.0 | 1.0 | 0.00 | 0.00 | 0.00 | 50 | 1008.2 |
| 20260830100020 | 82 | 103 | 0.0 | 2.0 | 0.00 | 0.00 | 0.00 | 49 | 1007.8 |
| 20260830094518 | 82 | 102 | 0.0 | 1.0 | 0.00 | 0.00 | 0.00 | 49 | 1007.7 |
| 20260830093017 | 83 | 106 | 2.0 | 5.0 | 0.00 | 0.00 | 0.00 | 47 | 1007.6 |
| 20260830091514 | 84 | 101 | 3.0 | 6.0 | 0.00 | 0.00 | 0.00 | 46 | 1007.7 |
| 20260830090017 | 84 | 173 | 2.0 | 7.0 | 0.00 | 0.00 | 0.00 | 47 | 1007.5 |
| 20260830084510 | 84 | 175 | 1.0 | 7.0 | 0.00 | 0.00 | 0.00 | 47 | 1007.2 |
| 20260830083010 | 83 | 172 | 1.0 | 7.0 | 0.00 | 0.00 | 0.00 | 49 | 1007.2 |
| 20260830081509 | 83 | 169 | 5.0 | 9.0 | 0.00 | 0.00 | 0.00 | 49 | 1007.2 |
| 20260830080007 | 83 | 94 | 3.0 | 15.0 | 0.00 | 0.00 | 0.00 | 49 | 1007.0 |
| 20260830074503 | 83 | 167 | 8.0 | 15.0 | 0.00 | 0.00 | 0.00 | 49 | 1006.6 |
| 20260830073002 | 84 | 176 | 8.0 | 15.0 | 0.00 | 0.00 | 0.00 | 49 | 1006.5 |
| 20260830071604 | 84 | 174 | 10.0 | 17.0 | 0.00 | 0.00 | 0.00 | 49 | 1006.6 |
| 20260830070056 | 84 | 170 | 4.0 | 8.0 | 0.00 | 0.00 | 0.00 | 47 | 1006.4 |
| 20260830064558 | 83 | 169 | 3.0 | 7.0 | 0.00 | 0.00 | 0.00 | 49 | 1006.6 |
| 20260830063058 | 82 | 178 | 2.0 | 4.0 | 0.00 | 0.00 | 0.00 | 51 | 1006.7 |
| 20260830061554 | 82 | 179 | 0.0 | 3.0 | 0.00 | 0.00 | 0.00 | 52 | 1007.0 |
| 20260830060053 | 82 | 174 | 0.0 | 5.0 | 0.00 | 0.00 | 0.00 | 52 | 1007.0 |
| 20260830054552 | 82 | 175 | 0.0 | 4.0 | 0.00 | 0.00 | 0.00 | 52 | 1007.3 |
| 20260830053054 | 83 | 103 | 2.0 | 6.0 | 0.00 | 0.00 | 0.00 | 50 | 1007.9 |
| 20260830051600 | 84 | 150 | 0.0 | 4.0 | 0.00 | 0.00 | 0.00 | 46 | 1008.2 |
| 20260830044604 | 85 | 125 | 0.0 | 3.0 | 0.00 | 0.00 | 0.00 | 46 | 1008.6 |
| 20260830043104 | 85 | 136 | 0.0 | 0.0 | 0.00 | 0.00 | 0.00 | 48 | 1008.5 |
| 20260830041600 | 85 | 135 | 1.0 | 5.0 | 0.00 | 0.00 | 0.00 | 48 | 1008.5 |
| 20260830040108 | 86 | 129 | 3.0 | 10.0 | 0.00 | 0.00 | 0.00 | 47 | 1008.6 |
| 20260830034548 | 86 | 126 | 3.0 | 6.0 | 0.00 | 0.37 | 0.00 | 48 | 1008.3 |
| 20260830033052 | 86 | 127 | 1.0 | 8.0 | 0.00 | 0.37 | 0.00 | 47 | 1008.0 |
| 20260830031548 | 86 | 146 | 5.0 | 11.0 | 0.00 | 0.37 | 0.00 | 47 | 1007.5 |
| 20260830030047 | 86 | 103 | 0.0 | 3.0 | 0.00 | 0.37 | 0.00 | 48 | 1006.8 |
| 20260830024547 | 87 | 130 | 1.0 | 5.0 | 0.00 | 0.37 | 0.00 | 46 | 1006.7 |
| 20260830023047 | 87 | 134 | 1.0 | 8.0 | 0.00 | 0.37 | 0.00 | 46 | 1006.2 |
| 20260830021545 | 87 | 105 | 1.0 | 9.0 | 0.00 | 0.37 | 0.00 | 45 | 1006.0 |
| 20260830014547 | 88 | 103 | 3.0 | 11.0 | 0.00 | 0.37 | 0.00 | 44 | 1005.4 |